[[{"header":{"parameterUnit":"m.s-1","parameterCategory":1,"la1":30.2992,"la2":30.254,"lo1":-89.0895,"lo2":-89.0443,"dy":0.0025,"dx":0.0025,"nx":19,"ny":19,"refTime":"2026-04-19T21:00:00:Z","depth":0,"parameterNumber":2,"parameterNumberName":"U-component_of_WINDS"},"data":[0,0,0,-4.359,-4.3591,-4.3632,-4.3633,-4.3697,-4.3698,0,0,0,0,0,0,0,0,0,0,0,-4.3584,-4.3585,-4.359,-4.3591,-4.3632,-4.3633,-4.3697,-4.3698,0,0,0,0,0,0,0,0,0,0,0,-4.3584,-4.3585,-4.3585,-4.3591,-4.3632,-4.3633,-4.3697,-4.3662,0,0,0,0,0,0,0,0,0,0,-4.3619,-4.362,-4.3584,-4.3586,-4.3591,-4.3632,-4.3633,-4.366,-4.3664,-4.3683,0,-4.3703,0,-4.3702,-4.3703,-4.3703,0,0,0,-4.3586,-4.3617,-4.3622,-4.3586,-4.3592,-4.3632,-4.3612,-4.3662,-4.3667,-4.3689,-4.3703,-4.3705,-4.3703,-4.3704,-4.3704,-4.3835,-4.3836,0,0,-4.3583,-4.3595,-4.3619,-4.3626,-4.362,-4.3611,-4.3614,-4.3664,-4.3681,-4.3704,-4.3707,-4.3704,-4.3704,-4.3705,-4.3834,-4.3835,0,0,0,-4.358,-4.3594,-4.3597,-4.3623,-4.363,-4.3612,-4.3615,-4.3679,-4.3679,-4.3707,-4.3704,-4.3705,-4.3706,-4.3833,-4.3835,-4.3887,0,0,0,-4.3579,-4.3592,-4.3597,-4.3604,-4.3629,-4.3655,-4.3629,-4.3675,-4.3681,-4.3704,-4.3705,-4.3706,-4.3832,-4.3834,-4.3884,-4.391,0,0,0,-4.3579,-4.3592,-4.36,-4.3605,-4.3623,-4.3654,-4.3657,-4.3676,-4.3679,-4.3703,-4.3706,-4.3832,-4.3834,-4.3881,-4.3905,-4.3947,0,0,0,-4.3583,-4.3646,-4.3601,-4.3671,-4.3623,-4.3687,-4.3656,-4.3703,-4.373,-4.3705,-4.3832,-4.3835,-4.388,-4.3901,-4.3944,-4.3984,-4.4002,0,0,-4.3669,-4.3657,-4.3697,-4.3658,-4.3733,-4.3679,-4.3762,-4.3776,-4.3767,-4.3813,-4.3816,-4.3885,-4.3904,-4.3947,-4.4103,-4.4118,0,0,0,-4.3729,-4.3758,-4.3775,-4.3802,-4.3815,-4.3828,-4.3828,-4.3834,-4.3872,-4.3793,-4.3913,-4.3924,-4.3948,-4.3966,-4.3979,-4.3999,-4.3844,-4.3844,-4.3844,-4.3866,-4.3853,-4.3919,-4.3912,-4.3939,-4.3939,-4.396,-4.3967,-4.3945,-4.3974,-4.3987,-4.4083,-4.4106,-4.4115,-4.4136,-4.4008,-4.4009,-4.4009,-4.4009,-4.399,-4.4029,-4.4001,-4.4055,-4.4041,-4.4086,-4.4091,-4.4074,-4.4114,-4.4072,-4.4093,-4.4047,-4.4131,-4.4149,-4.4013,-4.4012,-4.4012,-4.4011,-4.4011,-4.4077,-4.4093,-4.41,-4.4139,-4.417,-4.4161,-4.4202,-4.4188,-4.4175,-4.4196,-4.4208,-4.4207,-4.4203,-4.4203,-4.4204,-4.4204,-4.4204,-4.4205,-4.4205,-4.4164,-4.417,-4.4205,-4.4226,-4.4242,-4.4262,-4.4266,-4.4281,-4.4295,-4.4282,-4.4282,-4.4258,-4.4143,-4.4113,-4.421,-4.4209,-4.4208,-4.4208,-4.4207,-4.4291,-4.4261,-4.4316,-4.4333,-4.4357,-4.4389,-4.4373,-4.4406,-4.4417,-4.4438,-4.441,-4.4328,-4.4314,-4.4304,-4.4279,-4.4413,-4.4413,-4.4413,-4.4413,-4.4364,-4.4356,-4.441,-4.4437,-4.4463,-4.4454,-4.4517,-4.4522,-4.4521,-4.4528,-4.4507,-4.4474,-4.4464,-4.4456,-4.4443,-4.4419,-4.4586,-4.4586,-4.4586,-4.4441,-4.4436,-4.4492,-4.4491,-4.451,-4.4526,-4.4585,-4.4619,-4.4612,-4.4593,-4.4532,-4.4525,-4.4471,-4.4455,-4.4432,-4.4412,-4.4368,0,0]},{"header":{"parameterUnit":"m.s-1","parameterCategory":1,"la1":30.2992,"la2":30.254,"lo1":-89.0895,"lo2":-89.0443,"dy":0.0025,"dx":0.0025,"nx":19,"ny":19,"refTime":"2026-04-19T21:00:00:Z","depth":0,"parameterNumber":3,"parameterNumberName":"V-component_of_WINDS"},"data":[0,0,0,4.1253,4.1253,4.1261,4.1261,4.1268,4.1268,0,0,0,0,0,0,0,0,0,0,0,4.125,4.125,4.1253,4.1253,4.1261,4.1261,4.1268,4.1268,0,0,0,0,0,0,0,0,0,0,0,4.125,4.125,4.125,4.1253,4.1261,4.1261,4.1268,4.1263,0,0,0,0,0,0,0,0,0,0,4.1255,4.1252,4.125,4.125,4.1253,4.1261,4.1261,4.1263,4.1263,4.1264,0,4.1265,0,4.1267,4.1269,4.1269,0,0,0,4.1253,4.1252,4.1255,4.125,4.1253,4.1261,4.1257,4.1263,4.1264,4.1264,4.1265,4.1265,4.1267,4.1269,4.1269,4.1276,4.1276,0,0,4.1252,4.125,4.1254,4.1255,4.1255,4.1257,4.1258,4.1263,4.1263,4.1265,4.1266,4.1267,4.1269,4.1269,4.1276,4.1276,0,0,0,4.1251,4.125,4.1253,4.1255,4.1257,4.1257,4.1258,4.1263,4.1264,4.1266,4.1267,4.1269,4.1269,4.1276,4.1276,4.1277,0,0,0,4.1251,4.1249,4.1253,4.1251,4.1257,4.126,4.1257,4.1264,4.1265,4.1267,4.1269,4.1269,4.1276,4.1276,4.1277,4.1277,0,0,0,4.1249,4.1249,4.125,4.1251,4.1255,4.126,4.1262,4.1264,4.1266,4.1269,4.1269,4.1276,4.1276,4.1277,4.1277,4.1279,0,0,0,4.1246,4.1249,4.125,4.1253,4.1255,4.1261,4.1262,4.1266,4.1269,4.1269,4.1276,4.1276,4.1277,4.1277,4.1279,4.128,4.1281,0,0,4.1248,4.1249,4.1251,4.1253,4.1259,4.126,4.1266,4.1269,4.127,4.1274,4.1274,4.1277,4.1277,4.1279,4.1285,4.1286,0,0,0,4.1251,4.1252,4.1254,4.1258,4.1263,4.1266,4.127,4.1272,4.1275,4.1272,4.1278,4.1278,4.128,4.128,4.1281,4.1282,4.1276,4.1276,4.1276,4.1248,4.1252,4.1257,4.1262,4.1266,4.1271,4.1274,4.1277,4.1278,4.1279,4.128,4.1284,4.1284,4.1285,4.1286,4.1281,4.1281,4.1281,4.1281,4.125,4.1254,4.1258,4.1264,4.1268,4.1273,4.1278,4.1279,4.1284,4.1283,4.1284,4.1282,4.1285,4.1287,4.1282,4.1282,4.1282,4.1282,4.1282,4.1249,4.1251,4.1255,4.1263,4.1268,4.1274,4.1279,4.1282,4.1284,4.1286,4.1287,4.1287,4.1288,4.1287,4.1287,4.1287,4.1287,4.1287,4.1287,4.1245,4.125,4.1255,4.1262,4.1266,4.1272,4.1279,4.1282,4.1287,4.1289,4.1289,4.129,4.1285,4.1284,4.1287,4.1287,4.1287,4.1287,4.1287,4.1245,4.1247,4.1254,4.1258,4.1268,4.1274,4.1279,4.1287,4.129,4.1293,4.1295,4.1291,4.1291,4.1291,4.129,4.1294,4.1294,4.1294,4.1294,4.1244,4.1245,4.1255,4.1262,4.1269,4.1276,4.1284,4.129,4.1296,4.1298,4.1298,4.1297,4.1297,4.1297,4.1297,4.1296,4.1302,4.1302,4.1302,4.1244,4.1247,4.1253,4.1262,4.1271,4.1278,4.1286,4.1293,4.13,4.1302,4.13,4.13,4.1298,4.1298,4.1298,4.1297,4.1295,0,0]}]]